• In Uzbekistan
  • List of Countries
  • For 7 days
  • Water Temperature
  • Satellite Maps
  • Weather Map
  • Weather Widgets
  • user-avatar
    Login

    Hourly Weather Shusha

    Today, 28 May, Sunday

    Time Temperature Precipitation Wind Pressure Humidity
    00:00 +11°C° 0.2 mm 1 mps 657 mmHg 87%
    01:00 +11°C° 0 mm 1 mps 657 mmHg 87%
    02:00 +11°C° 0 mm 1 mps 657 mmHg 87%
    03:00 +11°C° 0 mm 1 mps 657 mmHg 81%
    04:00 +12°C° 0 mm 1 mps 658 mmHg 77%
    05:00 +13°C° 0 mm 1 mps 658 mmHg 73%
    06:00 +14°C° 0 mm 1 mps 659 mmHg 69%
    07:00 +16°C° 0 mm 1 mps 659 mmHg 60%
    08:00 +18°C° 0 mm 2 mps 660 mmHg 50%
    09:00 +21°C° 0 mm 2 mps 660 mmHg 41%
    10:00 +23°C° 0 mm 2 mps 660 mmHg 39%
    11:00 +24°C° 0 mm 3 mps 660 mmHg 37%
    12:00 +25°C° 0 mm 3 mps 660 mmHg 34%
    13:00 +25°C° 0 mm 3 mps 660 mmHg 34%
    14:00 +25°C° 0 mm 3 mps 660 mmHg 34%
    15:00 +25°C° 0 mm 3 mps 659 mmHg 34%
    16:00 +24°C° 0.1 mm 3 mps 660 mmHg 39%
    17:00 +22°C° 0.1 mm 3 mps 660 mmHg 44%
    18:00 +21°C° 0.1 mm 2 mps 660 mmHg 49%
    19:00 +18°C° 0.2 mm 2 mps 660 mmHg 57%
    20:00 +16°C° 0.2 mm 2 mps 660 mmHg 64%
    21:00 +13°C° 0.2 mm 2 mps 659 mmHg 72%
    22:00 +13°C° 0.2 mm 1 mps 660 mmHg 73%
    23:00 +12°C° 0.2 mm 1 mps 660 mmHg 75%

    Tomorrow, 29 May, Monday

    Time Temperature Precipitation Wind Pressure Humidity
    00:00 +12°C° 0.2 mm 1 mps 660 mmHg 76%
    01:00 +11°C° 0 mm 1 mps 661 mmHg 76%
    02:00 +11°C° 0 mm 1 mps 661 mmHg 75%
    03:00 +11°C° 0 mm 1 mps 661 mmHg 75%
    04:00 +12°C° 0 mm 1 mps 661 mmHg 71%
    05:00 +13°C° 0 mm 1 mps 662 mmHg 68%
    06:00 +14°C° 0 mm 1 mps 662 mmHg 64%
    07:00 +16°C° 0 mm 1 mps 663 mmHg 59%
    08:00 +18°C° 0 mm 2 mps 663 mmHg 54%
    09:00 +20°C° 0 mm 2 mps 664 mmHg 49%
    10:00 +21°C° 0 mm 2 mps 664 mmHg 47%
    11:00 +22°C° 0 mm 3 mps 664 mmHg 45%
    12:00 +24°C° 0 mm 3 mps 664 mmHg 43%
    13:00 +24°C° 0.3 mm 3 mps 664 mmHg 44%
    14:00 +24°C° 0.3 mm 3 mps 664 mmHg 45%
    15:00 +23°C° 0.3 mm 4 mps 663 mmHg 46%
    16:00 +22°C° 0.2 mm 4 mps 663 mmHg 50%
    17:00 +21°C° 0.2 mm 3 mps 663 mmHg 53%
    18:00 +19°C° 0.2 mm 3 mps 663 mmHg 57%
    19:00 +17°C° 0 mm 3 mps 662 mmHg 64%
    20:00 +15°C° 0 mm 2 mps 662 mmHg 71%
    21:00 +12°C° 0 mm 2 mps 662 mmHg 78%
    22:00 +12°C° 0 mm 1 mps 662 mmHg 80%
    23:00 +11°C° 0 mm 1 mps 662 mmHg 82%

    Day after tomorrow, 30 May, Tuesday

    Time Temperature Precipitation Wind Pressure Humidity
    00:00 +11°C° 0 mm 1 mps 662 mmHg 84%
    01:00 +10°C° 0 mm 1 mps 661 mmHg 84%
    02:00 +10°C° 0 mm 1 mps 661 mmHg 85%
    03:00 +9°C° 0 mm 1 mps 661 mmHg 86%
    04:00 +11°C° 0 mm 1 mps 661 mmHg 82%
    05:00 +12°C° 0 mm 1 mps 662 mmHg 77%
    06:00 +14°C° 0 mm 1 mps 662 mmHg 73%
    07:00 +16°C° 0 mm 1 mps 662 mmHg 64%
    08:00 +19°C° 0 mm 1 mps 663 mmHg 56%
    09:00 +20°C° 0 mm 2 mps 663 mmHg 48%
    10:00 +21°C° 0 mm 2 mps 663 mmHg 44%
    11:00 +23°C° 0 mm 2 mps 663 mmHg 41%
    12:00 +25°C° 0 mm 3 mps 662 mmHg 38%
    13:00 +25°C° 0 mm 3 mps 662 mmHg 37%
    14:00 +25°C° 0 mm 3 mps 662 mmHg 37%
    15:00 +26°C° 0 mm 3 mps 661 mmHg 37%
    16:00 +25°C° 0 mm 2 mps 661 mmHg 41%
    17:00 +24°C° 0 mm 2 mps 660 mmHg 46%
    18:00 +23°C° 0 mm 1 mps 660 mmHg 50%
    19:00 +20°C° 0 mm 1 mps 660 mmHg 57%
    20:00 +18°C° 0 mm 1 mps 659 mmHg 65%
    21:00 +14°C° 0 mm 1 mps 659 mmHg 72%
    22:00 +14°C° 0 mm 1 mps 659 mmHg 70%
    23:00 +14°C° 0 mm 2 mps 659 mmHg 67%

    31 May, Wednesday

    Time Temperature Precipitation Wind Pressure Humidity
    00:00 +14°C° 0 mm 2 mps 659 mmHg 65%
    01:00 +14°C° 0 mm 2 mps 659 mmHg 64%
    02:00 +14°C° 0 mm 2 mps 659 mmHg 64%
    03:00 +13°C° 0 mm 2 mps 659 mmHg 63%
    04:00 +14°C° 0 mm 2 mps 659 mmHg 60%
    05:00 +16°C° 0 mm 2 mps 659 mmHg 57%
    06:00 +17°C° 0 mm 2 mps 660 mmHg 53%
    07:00 +19°C° 0 mm 2 mps 660 mmHg 46%
    08:00 +23°C° 0 mm 2 mps 661 mmHg 40%
    09:00 +25°C° 0 mm 2 mps 661 mmHg 33%
    10:00 +26°C° 0 mm 2 mps 661 mmHg 31%
    11:00 +27°C° 0 mm 3 mps 661 mmHg 30%
    12:00 +28°C° 0 mm 3 mps 661 mmHg 28%
    13:00 +28°C° 0 mm 3 mps 660 mmHg 29%
    14:00 +28°C° 0 mm 3 mps 660 mmHg 30%
    15:00 +28°C° 0 mm 3 mps 659 mmHg 31%
    16:00 +26°C° 0.1 mm 3 mps 659 mmHg 37%
    17:00 +25°C° 0.1 mm 3 mps 658 mmHg 43%
    18:00 +24°C° 0.1 mm 3 mps 658 mmHg 48%
    19:00 +20°C° 0.2 mm 3 mps 657 mmHg 57%
    20:00 +17°C° 0.2 mm 2 mps 657 mmHg 65%
    21:00 +15°C° 0.2 mm 2 mps 657 mmHg 73%
    22:00 +14°C° 0.2 mm 1 mps 657 mmHg 74%
    23:00 +14°C° 0.2 mm 1 mps 657 mmHg 76%

    1 June, Thursday

    Time Temperature Precipitation Wind Pressure Humidity
    00:00 +13°C° 0.2 mm 1 mps 656 mmHg 77%
    01:00 +13°C° 0.2 mm 1 mps 656 mmHg 77%
    02:00 +12°C° 0.2 mm 1 mps 656 mmHg 77%
    03:00 +12°C° 0.2 mm 1 mps 656 mmHg 77%
    04:00 +13°C° 0.1 mm 1 mps 657 mmHg 73%
    05:00 +14°C° 0.1 mm 1 mps 657 mmHg 70%
    06:00 +15°C° 0.1 mm 1 mps 658 mmHg 66%
    07:00 +18°C° 0 mm 1 mps 658 mmHg 58%
    08:00 +19°C° 0 mm 2 mps 658 mmHg 50%
    09:00 +21°C° 0 mm 2 mps 659 mmHg 41%
    10:00 +23°C° 0.1 mm 2 mps 659 mmHg 39%
    11:00 +24°C° 0.1 mm 3 mps 658 mmHg 37%
    12:00 +25°C° 0.1 mm 3 mps 658 mmHg 35%
    13:00 +25°C° 0.3 mm 3 mps 658 mmHg 35%
    14:00 +25°C° 0.3 mm 3 mps 657 mmHg 36%
    15:00 +26°C° 0.3 mm 3 mps 657 mmHg 36%
    16:00 +25°C° 0.4 mm 3 mps 657 mmHg 41%
    17:00 +24°C° 0.4 mm 2 mps 657 mmHg 45%
    18:00 +23°C° 0.4 mm 2 mps 657 mmHg 50%
    19:00 +19°C° 0.5 mm 2 mps 657 mmHg 57%
    20:00 +17°C° 0.5 mm 2 mps 656 mmHg 65%
    21:00 +14°C° 0.5 mm 1 mps 656 mmHg 72%
    22:00 +14°C° 0.1 mm 1 mps 656 mmHg 73%
    23:00 +13°C° 0.1 mm 1 mps 656 mmHg 74%

    2 June, Friday

    Time Temperature Precipitation Wind Pressure Humidity
    00:00 +13°C° 0.1 mm 1 mps 656 mmHg 74%
    01:00 +12°C° 0.1 mm 1 mps 656 mmHg 76%
    02:00 +12°C° 0.1 mm 1 mps 656 mmHg 77%
    03:00 +11°C° 0.1 mm 1 mps 656 mmHg 79%
    04:00 +12°C° 0 mm 1 mps 657 mmHg 74%
    05:00 +14°C° 0 mm 1 mps 657 mmHg 70%
    06:00 +14°C° 0 mm 0 mps 658 mmHg 66%
    07:00 +18°C° 0 mm 1 mps 659 mmHg 59%
    08:00 +19°C° 0 mm 2 mps 659 mmHg 53%
    09:00 +20°C° 0 mm 2 mps 660 mmHg 46%
    10:00 +21°C° 0.1 mm 2 mps 660 mmHg 44%
    11:00 +23°C° 0.1 mm 2 mps 660 mmHg 42%
    12:00 +24°C° 0.1 mm 3 mps 660 mmHg 40%
    13:00 +24°C° 0.4 mm 3 mps 659 mmHg 40%
    14:00 +24°C° 0.4 mm 2 mps 659 mmHg 40%
    15:00 +24°C° 0.4 mm 2 mps 659 mmHg 40%
    16:00 +24°C° 0.3 mm 2 mps 659 mmHg 43%
    17:00 +23°C° 0.3 mm 2 mps 660 mmHg 46%
    18:00 +21°C° 0.3 mm 2 mps 660 mmHg 49%
    19:00 +19°C° 0.2 mm 2 mps 659 mmHg 56%
    20:00 +16°C° 0.2 mm 2 mps 659 mmHg 64%
    21:00 +14°C° 0.2 mm 2 mps 659 mmHg 72%
    22:00 +13°C° 0 mm 2 mps 659 mmHg 72%
    23:00 +13°C° 0 mm 1 mps 659 mmHg 73%
    Show more